Погода Столб Остров

Погода Столб Остров : погода сейчас, прогноз погоды и архив. Всё, что Вы хотите узнать о погоде Столб Остров!

Поиск расширенной информации на нашем сайте:

Другие новости

Новости СМИ2

Главная страница сайта

Новости сайта

03.07.2017

Напоминаем, что на нашем специализированном сайте Метеоцентр.Азия вы можете получить высокодетализированные автоматические прогнозы погоды по пунктам России, СНГ и мира в авиационном формате (включающие направление и скорость ветра, видимость, явления погоды, количество и форму облачности, нижнюю и верхнюю границу облачности).


Погода Столб Остров - сегодня

Время (UTC), дата Ветер
(°,м/с) 
Видим.   Явления Облачность Т
(°С)
Тd
(°С)
f(%) Тe
(°С)
Pmin
(гПа)
dP
(гПа)
Po
(мм)
O2
(г/м3)
Тmin Tmax R s Состояние
почвы
21 18.02.18 280 (З) 10 км  слаб. снег  10/10 600 м 
[Sc]
-22.1 -23.4 89 -27  1020.7  -1.2  764  336           
03 19.02.18 270 (З) 10 км  слаб. снег  10/10 600 м 
[Sc]
-24.2 -25.4 90 -32  1018  -1.5  761  338           
06 19.02.18 260 (З) 10 км  слаб. снег  10/10 600 м 
[Sc]
-24.3 -25.5 90 -33  1016.5  -1.5  760  338           
09 19.02.18 260 (З) 10 км  слаб. снег  10/10 600 м 
[Sc]
-22.2 -23.5 89 -30  1015.9  -0.6  760  335           
15 19.02.18 240 (ЮЗ) 10 км  слаб. снег  10/10 600 м 
[Sc]
-21.9 -23.2 89 -30  1013.8  -1.3  758  334           
21 19.02.18 240 (ЮЗ) 7{13}  20000 м  позёмок  ясно 
-22.7 -23.9 90 -31  1011.3  -1.4  756  334           
12 21.02.18 160 (Ю) 15-17{19}  1000 м  метель{снег}  ясно 
-26.7 -27.9 90 -40  1007  2.2  753  338    -21.6     
00 22.02.18 160 (Ю) 11-15{18}  4000 м  метель  ясно 
-28.2 -29.4 89 -40  1019.5  3.1  763  345  -28.5      12  неравномерный
сухой снег
100% 
06 22.02.18 150 (ЮВ) 2{12}  20000 м    ясно 
-27 -28.2 89 -30  1024.6  2.3  766  345           
09 22.02.18 140 (ЮВ) 20000 м    ясно 
-28.8 -30.6 85 -32  1026.6  768  348           
12 22.02.18 тихо ()   20000 м    ясно 
-29.8 -32.2 80 -30  1028.1  1.5  770  350    -26.3       
15 22.02.18 тихо ()   20000 м    ясно 
-31.8 -34.1 80 -32  1029  0.9  770  353           
18 22.02.18 тихо ()   20000 м  [диам. изморози 0 мм]  ясно 
-32.7 -35.1 79 -33  1029.6  0.5  770  355           
21 22.02.18 тихо ()   20000 м  [диам. изморози 0 мм]  ясно 
-31.6 -33.3 85 -32  1031.6  772  354           
00 23.02.18 280 (З) 20000 м  [диам. изморози 0 мм]  10/0 средняя 
[Ac trans]
-30.8 -32.6 84 -35  1032.5  0.9  772  353  -33.3      13  неравномерный
сухой снег
100% 
03 23.02.18 270 (З) 20000 м    10/0 средняя, верхняя 
[Ac und|Cs]
-27.6 -30 80 -35  1032.8  0.4  773  348           
06 23.02.18 250 (З) 20000 м    10/0 средняя, верхняя 
[Ac und|Cs]
-26.8 -30 74 -34  1033.1  0.3  773  347           
09 23.02.18 230 (ЮЗ) 20000 м    10/0 средняя, верхняя 
[Ac und|Cs]
-27.2 -30.3 75 -34  1033.9  0.8  773  348           
12 23.02.18 260 (З) 20000 м    10/0 верхняя 
[Cs]
-26.3 -29.4 75 -34  1034.3  0.4  774  347    -25.9       
15 23.02.18 230 (ЮЗ) 10 км  слаб. снег  10/0 средняя 
[Ac und]
-27 -28.2 89 -34  1034.1  0.2  773  348           
18 23.02.18 230 (ЮЗ) 10 км  слаб. снег  10/0 средняя 
[Ac und]
-26.6 -27.7 90 -33  1033.6  -0.5  773  347           
21 23.02.18 220 (ЮЗ) 20000 м  {снег}  10/0 средняя 
[Ac und]
-24.9 -25.6 94 -32  1033  -0.6  773  344           
00 24.02.18 230 (ЮЗ) 4000 м  дымка{снег} [диам. изморози 0 мм]  10/10 600 м 
[Sc]
-22.4 -23 95 -29  1032.2  -0.8  772  341  -28.5    0.3  13  неравномерный
сухой снег
100% 
06 24.02.18 230 (ЮЗ) 20000 м  [диам. изморози 0 мм]  10/0 средняя 
[Ac und]
-21.7 -22.3 95 -22  1030.8  -0.7  771  339           
09 24.02.18 160 (Ю) 10 км  слаб. снег  10/10 1000 м 
[Sc]
-22.5 -23.1 95 -25  1031.1  0.2  771  340           
Время (UTC), дата Ветер
(°,м/с) 
Видим.   Явления Облачность Т
(°С)
Тd
(°С)
f(%) Тe
(°С)
Pmin
(гПа)
dP
(гПа)
Po
(мм)
O2
(г/м3)
Тmin Tmax R s Состояние
почвы

Для получения пояснительной информации подведите курсор к названию столбца.

ПОГОДА Столб Остров - архив

Всё, что Вы хотите узнать о погоде Столб Остров - удобно и подробно!

Выберите нужную дату (начиная с 1 января 2015* года) и нажмите кнопку "Найти".
Будут отображены архивные сводки погоды по пункту Столб Остров, начиная с указанной даты.


Отображать данные в формате CSV (для использования в таблицах Excel)


Внимание! Наш архив погоды предназначен исключительно для личного некоммерческого использования в познавательных целях. Если Вам необходимы официальные справки о состоянии погоды (для производственных, юридических, коммерческих и т.п. целей), обращайтесь в органы Росгидромета.

*Примечание: данная дата относится к архиву по метеостанциям СССР (Россия, СНГ, Балтия).
Архив по метеостанциям Зарубежной Европы и Азии (кроме Китая) хранится 10 дней, по другим регионам земного шара (Китай, Африка, Америка, Австралия, Океания) - 1 день.

Столб Остров - район местоположения метеостанции


Название, широта, долгота, высота метеостанции:
Столб Остров 72.4°ш. 126.5°д. 26 м над ур. моря [Российская Федерация]

Дополнительная информация

В oтличие oт бoльшинства пoгoдных сайтoв мы публикуем пoдрoбную метеoинфoрмацию в детальнoм прoфессиoнальнoм фoрмате.

Характеристики температуры и влажнoсти вoздуха измеряются на высoте 2 м в тени вдали oт зданий и деревьев.
Скoрoсть ветра измеряется на высoте 10 м (на урoвне рoста челoвека скoрoсть ветра ниже в 1.5-2 раза). Если метеoстанция нахoдится в гoрoде или в лесу, тo скoрoсть ветра занижена на 2-4 м/с пo сравнению с oткрытым местoм. Скoрoсть ветра над акватoриями крупных рек и oзёр, а также на вершинах хoлмoв на 2-5 м/с выше, чем в oбычных услoвиях.
Атмoсфернoе давление в разных тoчках местнoсти мoжет значительнo oтличаться oт давления на метеoстанции, в зависимoсти oт услoвий рельефа (при пoдъёме на 10 м давление пoнижается примернo на 1 мм рт.ст.).